Showing default

OPS 9314 (IDSCS 4), 2218

Orbit data source: Space-Track

OPS 9314 (IDSCS 4), 2218 is a payload satellite owned by USAF SSD (US) in GEO that was launched on Thu, 16 Jun 1966 UTC via a TITAN IIIC launch vehicle from the Air Force Eastern Test Range (AFETR). Payload-class satellites include a variety of spacecraft equipped with specific instruments for various scientific and technological missions. These include communications satellites like Starlink; space stations such as the ISS; scientific satellites like the Hubble; Earth observation satellites from companies like Planet Labs, Umbra, and HawkEye 360; GPS; miniature CubeSats for education and research; and military/defense satellites.

Loading next visibility...
Identifier
2218, 1966-053E
Orbit
GEO
Country
Flag of USUS
Related business
Manufacturer
Philco-Ford WDL
Mission
Non-operational spacecraft
Bus & Motor
IDCSP, Unknown motor
Mass
45 kg wet, 45 kg dry
Launch date (UTC)
1966-06-16 (60 years ago)
Launch vehicle
TITAN IIIC
Launch site
Air Force Eastern Test Range (AFETR)
Object type
Payload
Rocket body
Debris
Shape & HBR
Unknown
Radar Cross Section
Medium (>0.1 m² and <1 m²)

Expand to show TLE details & history
Last TLE update: 1 day ago

TLE from 1 day ago
0 OPS 9314 (IDSCS 4)
1  2218U 66053E   25353.50774029 -.00000059  00000-0  00000+0 0  9999
2  2218   8.2291  46.4572 0045671 195.5023 161.6946  1.07585064233460
Epoch: 2025-12-19T12:11Z
TLE epoch observation values (Epoch: 2025-12-19T12:11:08.761Z)
Latitude
-0.36659°
Longitude
132.70591°
Altitude
34,027.886 km
Speed
3.134 km/s
True Right ascension
02h 55m 21s
True Declination
0° 21' 58"
Sunlit
Object was in daylight at epoch
Visualization orbit readout
Latitude
Unknown
Longitude
Unknown
Altitude
Unknown
Speed
Unknown
Apparent Right ascension
Unknown
Apparent Declination
Unknown
Sunlit
N/A
Visualization observer readout
Local Sidereal Time
12:26:11
Azimuth
Unknown
Elevation
Unknown
Doppler factor
Unknown
Orbital elements
Apogee altitude
34,038.284 km
Perigee altitude
33,670.791 km
Semi-major axis
40,232.675 km
Eccentricity
0.00457
Inclination
8.2291°
RAAN
46.4572°
Arg. of periapsis
195.5023°
True anomaly
161.85809°
Mean anomaly
161.6946°
Eccentric anomaly
161.77643°
Mean motion
0.26895 °/min
Orbital period
1,338.53 mins
BSTAR
0
Loading maneuver chart data...
Computing Atmospheric mass density...
Loading historical data...
Loading historical data...
Loading historical data...
Loading historical data...
Loading historical data...
Loading historical data...
Loading historical data...

Documentation

Showing up to 5 results
|